Vorticity
25 25 25 23 20 16 12 9 8 7 7 6 6 6 7 8 9 10 10 10 9 7 7 8 9 10 10 11 11 12 13 14 14 15 15 15 14 14 13 12 11 10 10 10 9 8 6 5 5 4 4 4 5 6 7 9 12 14 15 15 14 13 12 11 10 10 10 10 9 9 9 9 9 9 9 9 9 9 9 9 9 9 9 9 8 8
22 22 23 22 21 18 16 13 10 7 5 4 5 6 7 9 10 11 12 12 11 9 7 7 8 9 10 11 11 12 12 13 14 15 16 16 15 14 12 11 10 10 10 10 9 8 7 6 6 6 6 6 8 9 11 13 15 15 14 13 12 10 9 9 8 8 8 9 9 9 9 9 9 9 8 8 8 8 7 7 7 7 7 7 7 7
16 15 13 11 10 8 7 5 4 3 3 5 6 8 8 9 10 12 14 15 14 13 11 10 11 12 12 12 12 12 12 12 14 15 16 16 14 13 11 11 11 11 11 10 9 9 8 7 7 7 8 9 11 13 15 15 14 13 12 10 9 9 8 8 8 8 8 8 8 8 8 8 8 8 7 7 7 7 6 6 6 6 6 6 7 7
12 9 5 -2 -6 -8 -9 -9 -5 1 5 7 9 9 9 9 11 14 17 16 14 13 13 16 17 17 16 14 13 13 13 15 16 17 17 14 12 10 9 10 10 10 10 9 8 8 8 8 9 10 12 13 14 15 15 14 13 11 10 9 9 9 9 9 9 8 8 8 8 8 8 7 7 7 7 7 7 7 7 7 7 7 7 8 8 8
7 3 -4 -13 -17 -17 -13 -7 -0 5 9 10 9 9 10 13 16 17 17 12 9 10 15 18 19 17 14 12 13 14 16 17 17 16 14 11 10 8 8 9 8 8 7 7 8 9 10 11 13 14 15 15 15 14 13 12 11 10 9 9 9 9 8 8 8 8 8 7 7 7 7 7 7 8 8 8 8 8 8 8 9 9 9 9 9 9
-3 -6 -13 -18 -18 -14 -6 2 7 10 10 10 10 11 14 17 18 15 11 6 4 7 12 13 12 9 7 7 9 13 16 15 14 11 9 8 7 7 8 7 7 7 8 9 11 12 14 14 15 15 14 13 12 11 10 10 9 9 8 8 8 7 7 7 7 8 8 8 8 8 8 9 9 9 9 9 9 10 10 10 10 10 10 11 11 11
-10 -13 -16 -14 -10 -3 5 9 11 11 10 10 12 14 16 15 12 9 5 4 4 6 7 5 4 2 1 3 6 9 11 10 8 7 6 6 6 6 7 8 9 10 11 12 13 13 13 13 12 12 11 10 9 9 8 8 8 7 7 7 7 7 8 8 8 8 9 9 9 9 10 10 10 10 10 11 11 11 11 11 12 12 12 12 12 12
-7 -9 -9 -4 1 7 12 13 13 11 10 10 11 12 11 8 6 3 2 1 2 2 3 5 7 7 6 6 8 9 8 7 6 6 6 7 7 7 8 9 10 11 12 12 12 11 11 10 9 9 8 8 7 7 7 7 7 7 7 8 8 8 9 9 9 10 10 10 10 11 11 11 11 12 12 12 12 13 13 13 13 14 14 14 14 14
4 3 4 8 11 13 15 15 14 12 11 12 11 9 6 2 -1 -3 -5 -4 -3 -1 4 9 12 12 11 11 11 9 8 8 7 7 8 8 8 9 9 10 11 11 11 11 10 10 9 8 8 7 7 7 7 7 7 7 8 8 8 9 9 10 10 10 11 11 11 11 11 12 12 12 13 13 13 14 14 14 15 15 15 16 16 16 17 17
13 13 13 15 15 15 14 15 14 14 13 13 11 8 3 -2 -5 -6 -7 -5 -1 3 8 11 12 12 10 10 9 8 7 8 8 9 9 9 9 9 10 10 11 10 10 10 9 8 8 7 7 7 7 7 8 8 8 8 9 9 9 10 10 11 11 11 11 12 12 12 12 13 13 14 14 14 15 15 16 16 17 17 18 18 19 19 19 20
15 15 14 15 15 14 13 13 12 12 14 14 14 11 6 2 -1 -2 -0 4 8 11 12 12 12 11 8 7 7 7 8 8 9 10 10 10 10 10 10 10 9 9 8 8 7 7 7 7 7 7 8 8 8 9 9 9 10 10 10 11 11 11 12 12 12 13 13 13 14 14 14 15 16 16 17 18 18 19 19 20 20 21 22 22 23 24
13 12 11 11 11 11 11 10 9 10 12 14 15 14 13 10 7 6 8 11 13 13 11 10 10 9 6 4 4 5 6 8 9 11 12 12 11 10 9 9 8 7 7 7 7 7 7 8 8 8 8 9 9 9 10 10 11 11 11 12 12 12 13 13 13 14 14 14 15 15 16 17 18 18 19 20 21 21 22 23 24 25 26 27 28 29
12 10 9 9 8 7 5 4 5 7 10 13 15 16 14 12 12 12 13 12 11 10 10 9 7 4 3 2 3 5 7 9 11 12 12 11 10 8 7 7 7 7 7 7 7 8 8 8 9 9 9 9 10 10 11 11 11 12 12 12 13 13 13 13 14 14 15 16 16 17 18 19 20 21 22 23 24 24 25 26 27 28 29 30 31 32
11 9 8 6 4 2 0 2 5 8 12 15 16 16 15 16 17 18 17 14 11 9 10 7 5 5 6 7 9 10 12 13 12 10 8 7 7 7 6 7 7 7 7 8 8 8 9 9 9 9 10 10 10 11 11 12 12 12 12 13 13 13 14 14 15 16 17 18 19 20 21 22 23 24 24 25 26 27 28 28 29 30 30 31 31 31
8 7 5 3 2 2 3 7 11 15 18 18 18 18 18 20 21 19 16 11 7 6 8 9 10 13 15 15 15 14 14 12 9 7 6 6 6 7 7 8 8 8 8 8 9 9 9 9 10 10 10 11 11 12 12 12 12 13 13 13 14 14 15 16 17 18 19 20 21 22 23 24 25 25 26 26 27 27 28 28 28 29 29 28 28 27
5 5 4 3 4 6 10 13 16 17 17 16 15 15 15 14 13 12 11 10 9 10 12 14 16 17 16 13 12 10 8 8 7 7 6 7 7 8 8 8 8 8 9 9 9 10 10 11 11 11 11 12 12 12 13 13 13 14 14 15 16 16 17 18 19 20 21 21 22 23 23 24 24 25 25 25 25 25 25 25 25 24 23 22 21 19
4 5 6 7 10 12 14 15 15 15 13 13 13 12 12 12 12 12 13 13 14 15 15 14 13 11 11 9 8 8 7 7 7 7 7 7 8 8 8 8 8 8 9 10 10 11 11 11 12 12 13 13 13 13 13 14 15 15 16 17 17 18 19 19 20 20 21 21 22 22 22 22 21 21 20 20 20 20 19 19 18 17 16 14 13 11
8 10 12 15 17 18 18 17 16 15 14 14 14 14 15 14 14 14 14 13 13 12 10 9 7 6 6 6 7 7 7 7 7 7 8 9 9 9 9 9 9 10 10 11 12 12 12 12 12 13 13 13 14 14 15 15 16 17 17 18 18 19 19 19 20 20 20 20 19 19 18 17 17 16 15 15 14 14 14 13 12 11 10 9 8 7
19 20 21 22 22 21 19 18 17 17 16 15 14 13 13 12 12 11 10 9 8 6 6 6 6 6 6 6 6 7 8 8 8 8 9 9 9 9 9 10 11 11 12 12 12 13 13 13 13 13 14 14 14 15 16 16 17 17 18 18 18 18 18 18 18 18 18 17 16 16 15 14 13 12 11 11 11 10 10 10 9 8 7 7 6 5
26 25 23 21 20 19 18 17 15 13 12 11 10 10 9 8 8 7 6 6 6 6 5 6 6 6 7 7 7 8 8 8 9 10 9 9 10 10 10 11 12 12 13 13 13 13 13 13 14 14 14 15 15 15 16 17 17 17 17 17 17 18 18 17 17 17 16 15 14 14 13 12 11 11 10 10 9 9 9 8 8 7 7 6 6 5
19 18 16 15 14 13 11 10 9 9 8 8 7 7 7 6 6 6 6 5 6 6 6 7 7 7 7 8 8 8 7 9 10 10 10 11 11 11 11 12 12 12 13 13 13 13 13 13 14 14 14 15 15 16 17 17 17 18 18 18 18 18 18 17 17 16 15 15 14 13 13 12 12 11 11 10 10 9 9 9 8 8 7 6 6 6
12 11 10 9 9 8 7 6 6 6 5 5 5 5 5 5 6 6 6 6 6 7 7 7 7 7 7 8 8 8 8 10 10 10 9 11 12 12 12 12 12 13 13 13 13 13 13 14 14 15 15 16 17 18 18 18 18 18 18 18 18 18 18 17 17 16 16 15 15 14 14 13 13 13 12 12 11 11 10 10 9 9 8 7 7 7
7 6 6 5 5 5 4 5 5 5 5 5 5 5 5 5 6 6 6 7 7 8 8 8 8 8 9 9 9 9 10 11 11 11 11 12 12 11 10 11 12 13 14 13 13 14 15 16 16 17 17 18 19 19 19 19 19 18 18 18 18 18 18 17 17 17 16 16 16 16 15 15 15 15 14 14 13 13 13 12 11 11 10 9 9 8
4 5 5 4 4 5 5 5 5 5 6 6 6 6 7 7 7 7 8 8 8 9 8 8 9 10 10 10 9 10 10 10 11 12 13 12 11 10 10 11 13 15 16 15 15 15 16 18 18 18 19 19 19 19 19 18 18 18 17 17 17 17 17 17 17 17 17 17 17 17 17 17 17 17 17 16 16 16 15 15 14 13 13 12 11 11
5 5 5 6 6 6 6 6 7 7 7 7 7 8 8 8 8 8 8 9 9 8 8 8 9 9 9 9 9 9 10 10 11 12 12 12 11 12 12 14 15 16 16 17 17 17 18 18 18 19 19 19 18 18 17 17 16 16 16 16 16 16 16 16 16 16 17 17 17 18 18 18 18 18 18 18 18 18 18 17 17 16 16 15 14 14
6 6 6 7 7 7 7 7 7 7 7 7 7 7 7 7 7 8 8 9 9 8 8 9 9 9 8 9 9 10 10 11 12 13 13 11 11 13 14 16 17 17 17 17 17 18 18 18 18 17 17 17 16 16 15 15 15 15 15 15 15 15 15 15 16 16 17 17 18 18 19 19 19 19 19 19 19 20 20 19 19 19 18 18 17 17
7 7 7 7 7 7 7 7 7 7 7 7 7 7 7 7 7 8 9 9 9 9 9 10 10 10 10 11 11 11 10 12 13 15 14 13 13 14 15 15 16 17 17 17 17 17 17 16 16 15 15 14 14 14 14 13 13 13 13 14 14 14 15 15 16 16 17 18 18 19 19 19 20 20 20 20 20 20 20 20 20 20 20 20 19 19
7 7 7 7 7 7 7 7 7 7 7 8 8 8 8 8 9 10 10 9 10 10 11 11 11 11 11 12 12 11 11 13 14 15 14 15 16 17 14 14 16 17 17 16 16 16 16 15 14 13 12 12 12 12 12 12 12 12 12 13 13 14 14 15 16 16 17 18 19 19 20 20 20 20 20 20 20 20 20 20 20 20 20 20 20 20
7 7 7 7 7 7 7 8 8 8 8 9 9 9 10 10 11 11 11 10 10 11 12 12 12 12 12 12 11 12 13 15 16 15 13 16 18 18 14 14 16 17 16 14 13 14 15 14 12 11 11 10 11 11 11 11 11 11 12 12 12 13 14 14 15 16 17 18 19 19 20 20 20 20 20 20 20 20 20 20 20 20 20 20 20 19
7 7 7 8 8 8 8 8 9 9 10 10 10 11 11 12 12 12 11 11 11 12 11 12 12 12 12 11 11 13 15 17 16 15 13 17 18 16 13 15 16 16 14 11 11 12 13 12 11 11 10 10 10 10 10 10 10 11 11 11 12 12 13 14 15 16 16 17 18 19 19 19 19 19 19 19 19 19 19 20 20 20 20 19 18 16
7 7 7 8 8 8 9 9 10 10 11 11 11 12 12 12 12 12 11 11 11 11 11 11 12 12 12 11 12 13 14 15 15 15 15 19 18 15 13 14 14 14 14 11 10 9 8 9 10 10 10 10 9 9 9 9 9 10 10 11 11 12 13 13 14 15 16 16 17 18 18 18 18 19 19 19 19 19 19 19 19 19 18 17 15 14
7 7 8 8 8 9 9 10 10 11 11 12 12 12 12 12 11 11 10 10 11 11 11 12 12 13 13 14 14 14 12 12 14 15 17 19 18 16 14 13 13 12 12 11 10 9 6 6 7 7 8 9 9 9 9 9 9 9 10 10 11 11 12 12 13 14 15 16 16 17 17 17 17 17 17 18 18 18 18 18 18 17 16 14 13 11
7 7 8 8 8 9 9 10 10 11 11 11 11 11 11 11 11 10 10 10 10 11 12 12 12 13 14 15 16 16 14 14 14 15 16 17 16 15 13 13 12 10 8 9 9 9 8 6 5 5 7 8 8 8 8 9 9 9 9 10 10 10 11 12 13 13 14 15 15 16 16 16 16 16 16 16 17 17 17 17 16 15 14 12 10 9
7 7 7 8 8 9 9 10 10 10 11 11 11 11 11 10 10 10 10 10 10 12 13 13 13 12 12 13 14 15 16 16 15 15 16 17 16 14 11 11 10 8 7 7 7 8 8 7 6 6 6 7 8 8 9 9 9 9 9 10 10 10 10 11 12 13 14 14 15 15 15 15 15 15 15 15 16 16 16 15 14 13 12 10 9 9
7 7 8 8 8 9 9 9 10 10 11 11 11 11 10 10 10 9 9 9 10 12 14 16 16 15 14 13 13 13 15 15 15 15 17 17 15 12 10 10 8 7 6 6 6 6 7 7 7 6 6 7 8 9 9 9 9 9 9 10 10 10 10 11 12 13 13 14 15 15 16 16 15 15 15 15 15 15 15 14 13 12 10 9 8 9
7 7 8 8 8 9 9 9 10 10 11 11 11 11 10 10 9 9 9 10 11 12 14 16 18 19 19 18 17 15 14 13 13 15 17 15 13 10 10 8 7 6 6 6 5 6 6 6 6 6 7 7 7 8 9 9 9 9 9 9 10 11 11 11 12 13 14 14 15 16 16 16 16 16 16 16 15 15 14 13 12 11 9 9 8 9
7 8 8 8 9 9 9 10 10 11 11 11 11 11 10 10 9 9 9 11 12 13 15 17 18 19 20 20 20 18 15 14 13 14 14 13 11 9 8 7 6 5 5 5 5 5 5 5 6 6 7 7 7 7 8 8 9 9 9 9 9 10 11 12 13 13 14 15 16 16 17 17 17 17 17 16 15 15 14 12 11 10 9 9 9 9
8 8 9 9 10 10 10 11 11 11 11 11 10 10 9 9 9 9 11 12 14 15 17 17 18 19 19 19 19 18 15 14 13 12 12 11 10 9 7 6 6 5 5 5 5 5 5 5 5 5 6 6 7 8 8 8 8 9 9 9 9 10 11 12 13 14 15 15 16 17 17 18 18 17 17 16 15 14 13 12 11 10 9 9 9 10
9 9 9 10 10 11 11 11 11 11 11 10 9 8 8 8 9 11 13 15 16 17 18 18 18 18 18 18 17 16 15 14 13 12 11 10 9 8 7 6 5 5 5 5 5 5 5 5 5 5 4 5 6 7 8 9 9 8 7 8 10 11 12 13 13 14 15 16 17 17 18 18 18 17 17 16 15 14 13 12 11 11 10 10 10 10
9 10 10 10 10 11 11 11 10 10 9 8 8 8 8 9 12 15 17 18 19 19 20 21 20 20 18 17 16 14 14 13 12 11 11 10 9 8 7 6 5 5 5 5 5 5 5 5 5 5 5 5 5 6 7 8 8 8 7 8 10 11 12 13 14 14 15 16 17 17 18 18 17 17 16 16 15 14 13 12 11 11 10 10 10 10
10 10 11 11 11 11 11 10 9 8 7 7 7 8 10 12 15 17 18 20 21 21 21 21 21 20 19 17 15 14 13 12 11 11 10 10 9 8 7 6 6 5 5 5 5 5 5 5 5 5 5 5 6 6 7 8 7 7 7 9 10 11 12 13 14 14 16 17 17 18 18 18 17 16 16 15 14 13 13 12 11 11 10 10 10 10
10 10 10 10 10 10 9 8 7 7 7 8 10 12 13 15 17 18 18 19 20 20 20 20 18 17 15 14 14 13 12 12 11 11 10 10 9 8 7 7 6 6 6 6 6 6 5 5 5 5 5 5 6 7 7 8 7 7 8 9 9 11 14 16 16 15 16 17 17 17 18 17 16 16 15 14 14 13 13 12 11 11 10 10 10 10
10 10 10 9 9 8 7 7 7 8 9 12 14 16 17 19 20 20 20 21 20 19 19 19 18 16 14 13 12 12 12 11 11 10 10 9 8 8 7 7 7 6 6 6 6 6 5 5 5 5 6 6 6 7 7 7 7 7 8 8 9 11 15 15 15 16 17 17 17 17 17 17 16 15 15 14 13 13 13 12 11 11 10 10 10 10
10 9 9 8 8 7 7 9 10 11 13 15 17 18 20 21 22 22 22 22 21 20 19 18 17 16 15 13 11 11 11 11 11 10 9 9 8 8 8 7 7 7 6 6 6 6 6 6 5 6 6 6 7 7 8 7 7 7 8 9 11 13 16 14 14 15 16 17 17 17 17 17 16 15 14 14 13 13 12 12 12 11 11 10 10 10
9 8 8 8 8 9 10 12 14 16 18 19 20 21 21 22 22 22 22 21 20 19 18 16 15 14 14 12 11 10 10 10 10 10 10 9 9 8 8 8 7 7 7 6 6 6 5 5 5 6 6 7 7 8 8 7 7 7 8 9 12 15 17 16 16 16 17 17 17 17 17 17 16 15 14 13 13 12 12 12 12 11 11 10 10 9
8 8 8 9 10 12 15 16 18 20 22 23 23 23 22 22 22 22 22 20 19 18 17 16 15 14 13 12 11 10 10 10 10 10 10 9 9 8 8 8 7 7 7 7 6 6 5 5 5 6 6 7 8 8 8 7 7 7 8 10 12 15 17 18 18 18 17 17 17 17 17 17 16 15 14 13 13 12 11 11 11 11 11 11 10 10
8 8 9 11 14 17 19 21 22 23 24 24 23 22 21 21 21 21 21 20 19 17 16 15 14 14 12 11 11 10 10 9 9 9 9 9 9 8 8 8 8 7 7 6 6 6 5 5 5 6 6 7 8 8 8 8 8 8 9 11 13 15 17 18 18 18 17 17 17 18 18 18 17 15 14 13 12 11 11 11 10 10 10 10 10 9
9 10 13 15 18 21 23 24 25 25 24 23 23 22 21 21 20 20 19 19 18 17 15 14 14 13 12 12 11 11 10 9 9 9 9 8 8 8 8 8 8 7 7 6 6 5 5 5 6 6 7 8 8 8 7 8 8 9 11 12 15 17 19 19 18 18 18 18 18 18 18 18 17 16 16 14 12 11 10 10 10 9 9 9 9 8
11 14 17 19 22 24 25 25 25 25 24 23 22 21 21 21 21 20 19 18 17 16 15 14 13 13 12 12 11 11 10 10 9 9 8 8 8 8 8 8 8 7 7 6 6 5 5 5 6 7 8 8 8 8 8 8 9 11 12 15 17 19 20 20 19 18 18 18 18 18 18 17 17 16 16 14 12 11 9 9 9 8 8 8 8 7
15 18 20 23 25 26 26 25 25 25 24 22 22 21 20 20 20 20 18 17 16 15 15 14 13 13 12 12 11 11 10 10 9 9 9 8 8 8 8 8 8 7 6 6 5 5 6 6 7 8 9 8 8 8 8 9 11 13 15 17 19 20 20 20 19 18 18 17 17 17 17 17 17 16 15 13 12 11 10 9 8 8 8 7 7 7
18 21 23 25 26 26 26 25 25 24 23 22 21 20 19 19 18 18 17 16 15 15 14 13 13 12 12 12 11 11 10 10 9 9 9 9 9 9 8 8 7 7 6 6 6 6 6 6 7 8 9 9 9 9 9 10 12 14 17 19 20 21 21 20 19 18 17 17 17 17 17 17 17 16 15 14 13 11 10 9 8 8 7 7 7 6
Height
5655 5655 5655 5656 5656 5656 5657 5657 5657 5657 5657 5657 5657 5657 5657 5657 5656 5656 5656 5656 5656 5655 5654 5654 5653 5653 5653 5653 5653 5653 5653 5652 5652 5652 5652 5651 5650 5649 5649 5648 5647 5647 5646 5646 5645 5644 5644 5643 5642 5641 5640 5640 5639 5639 5638 5637 5636 5636 5635 5634 5634 5633 5633 5632 5631 5631 5630 5630 5630 5629 5629 5628 5627 5627 5626 5625 5625 5624 5624 5624 5623 5623 5622 5621 5621 5620
5652 5652 5652 5652 5653 5653 5653 5654 5654 5654 5653 5653 5653 5653 5653 5653 5652 5652 5652 5652 5651 5651 5650 5649 5649 5648 5648 5648 5648 5648 5648 5647 5647 5647 5647 5646 5646 5645 5644 5644 5643 5642 5641 5641 5640 5639 5638 5638 5637 5636 5635 5634 5634 5633 5632 5632 5631 5630 5630 5629 5629 5628 5627 5627 5626 5625 5625 5624 5624 5623 5623 5622 5621 5620 5620 5619 5618 5618 5617 5616 5616 5615 5615 5614 5614 5613
5649 5648 5648 5649 5649 5650 5650 5650 5650 5650 5649 5649 5649 5649 5649 5648 5648 5647 5647 5647 5647 5646 5646 5645 5644 5644 5643 5643 5643 5643 5643 5643 5642 5642 5642 5641 5641 5640 5640 5639 5638 5638 5637 5636 5635 5634 5633 5632 5632 5631 5630 5629 5629 5628 5627 5626 5625 5625 5624 5624 5623 5623 5622 5621 5620 5620 5619 5619 5618 5617 5616 5615 5615 5614 5613 5612 5611 5611 5610 5609 5609 5608 5607 5606 5606 5605
5643 5644 5644 5645 5645 5646 5646 5646 5646 5645 5645 5645 5644 5644 5644 5644 5643 5643 5643 5642 5642 5642 5641 5640 5640 5639 5639 5639 5639 5639 5638 5638 5638 5638 5637 5637 5636 5636 5635 5634 5634 5633 5632 5631 5630 5629 5628 5627 5627 5626 5625 5624 5624 5623 5622 5621 5620 5619 5619 5618 5618 5617 5616 5615 5615 5614 5613 5612 5612 5611 5610 5609 5608 5607 5606 5605 5604 5604 5603 5602 5601 5600 5599 5599 5598 5597
5640 5641 5641 5641 5642 5641 5641 5642 5641 5641 5641 5641 5640 5640 5640 5639 5639 5638 5638 5638 5638 5637 5637 5636 5635 5635 5634 5634 5634 5634 5634 5634 5634 5633 5633 5632 5632 5631 5630 5629 5629 5628 5627 5626 5625 5624 5623 5623 5622 5621 5620 5619 5618 5617 5616 5616 5615 5614 5614 5613 5612 5611 5610 5610 5609 5608 5607 5606 5605 5604 5603 5602 5601 5600 5599 5598 5597 5596 5595 5594 5593 5592 5592 5591 5590 5589
5637 5638 5638 5638 5638 5638 5638 5638 5638 5637 5637 5637 5637 5636 5636 5635 5635 5634 5634 5634 5634 5633 5633 5632 5631 5631 5630 5630 5630 5630 5630 5630 5629 5629 5629 5628 5627 5626 5625 5624 5624 5623 5622 5621 5620 5619 5618 5617 5617 5616 5615 5614 5613 5612 5611 5610 5610 5609 5608 5607 5606 5605 5605 5604 5603 5602 5601 5599 5598 5597 5596 5595 5594 5593 5591 5590 5589 5588 5587 5586 5585 5584 5584 5583 5581 5580
5634 5634 5634 5634 5634 5634 5634 5634 5634 5634 5634 5634 5634 5633 5633 5632 5631 5630 5630 5630 5630 5629 5629 5629 5628 5627 5627 5626 5626 5626 5626 5625 5625 5624 5624 5623 5622 5621 5620 5619 5618 5617 5616 5615 5614 5614 5613 5612 5611 5610 5609 5609 5608 5607 5606 5605 5604 5604 5603 5601 5600 5599 5599 5597 5596 5595 5594 5593 5591 5590 5589 5588 5586 5585 5584 5583 5582 5580 5579 5578 5577 5576 5575 5574 5573 5572
5631 5632 5632 5632 5632 5631 5631 5630 5630 5630 5630 5630 5630 5630 5629 5629 5628 5627 5626 5626 5626 5625 5625 5624 5624 5623 5623 5622 5622 5621 5621 5620 5619 5619 5618 5617 5616 5615 5614 5614 5613 5612 5611 5610 5609 5608 5607 5606 5606 5605 5604 5604 5603 5602 5601 5600 5599 5598 5597 5595 5594 5593 5592 5591 5589 5588 5587 5585 5584 5583 5582 5580 5579 5578 5576 5575 5574 5573 5571 5570 5569 5568 5567 5566 5564 5563
5628 5629 5629 5629 5629 5628 5627 5627 5627 5627 5627 5627 5627 5626 5626 5625 5624 5624 5623 5622 5622 5621 5621 5620 5619 5619 5618 5618 5617 5616 5616 5615 5614 5614 5613 5612 5611 5610 5609 5608 5607 5606 5605 5604 5603 5603 5602 5601 5600 5600 5599 5598 5597 5596 5595 5594 5593 5591 5590 5589 5588 5586 5585 5584 5583 5581 5580 5579 5577 5576 5574 5573 5572 5570 5569 5568 5566 5565 5563 5562 5560 5559 5558 5557 5555 5554
5625 5625 5625 5625 5625 5624 5624 5623 5623 5623 5623 5623 5622 5622 5622 5622 5621 5620 5619 5618 5618 5617 5617 5616 5615 5614 5613 5613 5613 5612 5612 5611 5610 5609 5608 5607 5606 5605 5604 5603 5601 5600 5599 5599 5598 5597 5596 5596 5595 5594 5593 5592 5591 5590 5589 5587 5586 5585 5584 5582 5581 5580 5578 5577 5576 5574 5573 5571 5570 5569 5567 5566 5564 5563 5561 5560 5558 5557 5555 5554 5552 5551 5549 5548 5547 5545
5622 5622 5622 5622 5621 5621 5620 5620 5620 5620 5620 5619 5619 5618 5618 5618 5617 5616 5615 5614 5614 5614 5613 5612 5611 5610 5609 5609 5609 5609 5608 5607 5606 5604 5604 5602 5601 5600 5599 5598 5596 5595 5594 5593 5592 5591 5591 5590 5589 5588 5586 5585 5584 5583 5582 5581 5579 5578 5577 5576 5574 5573 5572 5570 5569 5567 5566 5564 5563 5561 5560 5558 5557 5555 5554 5552 5550 5549 5547 5546 5544 5543 5541 5540 5538 5537
5618 5618 5618 5618 5618 5617 5617 5617 5616 5616 5616 5616 5615 5614 5614 5614 5613 5612 5611 5610 5610 5610 5609 5609 5608 5607 5606 5605 5605 5604 5604 5603 5601 5599 5598 5597 5596 5595 5594 5592 5591 5590 5589 5587 5586 5586 5585 5584 5583 5581 5580 5579 5578 5577 5575 5574 5573 5572 5570 5569 5568 5566 5565 5563 5562 5560 5559 5557 5556 5554 5553 5551 5549 5548 5546 5544 5543 5541 5540 5538 5537 5535 5534 5532 5531 5529
5615 5615 5614 5614 5614 5614 5614 5614 5614 5613 5613 5612 5612 5611 5610 5610 5609 5609 5608 5607 5607 5606 5606 5605 5604 5603 5602 5601 5601 5600 5599 5598 5596 5594 5593 5592 5591 5590 5589 5587 5585 5584 5583 5582 5581 5580 5579 5578 5576 5575 5574 5573 5571 5570 5569 5568 5566 5565 5564 5562 5561 5559 5558 5556 5555 5553 5552 5550 5549 5547 5546 5544 5542 5541 5539 5537 5536 5534 5532 5531 5529 5528 5526 5525 5524 5522
5612 5611 5611 5611 5611 5611 5611 5610 5610 5610 5609 5609 5608 5607 5607 5606 5606 5605 5604 5604 5603 5602 5602 5601 5600 5599 5598 5597 5597 5596 5595 5593 5591 5589 5588 5587 5586 5585 5584 5581 5579 5578 5578 5576 5575 5574 5573 5572 5570 5569 5568 5566 5565 5564 5563 5561 5560 5559 5557 5555 5554 5553 5551 5549 5548 5547 5545 5544 5542 5540 5539 5537 5535 5534 5532 5530 5529 5527 5526 5524 5523 5521 5520 5519 5517 5516
5609 5608 5608 5608 5608 5608 5608 5608 5607 5606 5606 5605 5604 5604 5603 5602 5602 5601 5601 5600 5599 5599 5598 5597 5596 5594 5593 5593 5592 5592 5591 5589 5586 5584 5583 5582 5581 5580 5579 5576 5574 5573 5572 5571 5569 5568 5567 5565 5564 5562 5561 5560 5559 5558 5556 5555 5553 5552 5550 5549 5548 5546 5544 5543 5541 5540 5539 5537 5535 5534 5532 5530 5529 5527 5525 5524 5523 5521 5519 5518 5517 5515 5514 5513 5512 5511
5606 5606 5605 5605 5605 5605 5605 5604 5604 5603 5602 5602 5601 5600 5600 5599 5599 5598 5597 5596 5595 5595 5594 5593 5591 5590 5589 5588 5588 5588 5586 5584 5581 5579 5578 5577 5576 5575 5574 5571 5568 5567 5566 5565 5564 5562 5560 5559 5558 5556 5555 5554 5553 5551 5550 5548 5547 5545 5544 5542 5541 5539 5538 5536 5535 5534 5532 5530 5529 5527 5526 5524 5523 5521 5520 5519 5517 5516 5514 5513 5512 5511 5510 5509 5508 5507
5604 5603 5603 5603 5603 5602 5602 5602 5601 5600 5599 5598 5598 5597 5596 5596 5595 5594 5594 5593 5592 5591 5590 5589 5587 5586 5584 5584 5584 5583 5582 5579 5576 5574 5573 5572 5571 5570 5569 5566 5563 5561 5560 5560 5558 5556 5554 5553 5552 5550 5549 5548 5546 5545 5543 5542 5540 5539 5537 5536 5534 5533 5531 5530 5529 5527 5526 5524 5523 5522 5520 5519 5518 5516 5515 5514 5512 5511 5510 5509 5508 5507 5505 5505 5504 5503
5601 5601 5601 5600 5600 5599 5599 5599 5598 5597 5596 5595 5594 5594 5593 5593 5592 5591 5590 5589 5588 5587 5585 5584 5583 5582 5580 5579 5579 5578 5577 5574 5571 5569 5569 5567 5566 5564 5563 5561 5558 5556 5555 5554 5552 5551 5549 5547 5546 5544 5543 5541 5540 5539 5537 5535 5534 5532 5531 5529 5528 5526 5525 5524 5523 5522 5520 5519 5518 5517 5515 5514 5513 5512 5510 5509 5508 5507 5506 5505 5504 5503 5502 5501 5500 5499
5599 5599 5598 5598 5597 5596 5596 5595 5594 5594 5593 5592 5592 5591 5590 5589 5589 5588 5587 5585 5584 5583 5581 5580 5579 5578 5577 5575 5574 5573 5572 5569 5567 5564 5564 5562 5561 5559 5558 5556 5553 5551 5549 5548 5547 5545 5543 5541 5540 5538 5537 5535 5534 5532 5530 5529 5527 5526 5524 5523 5522 5521 5519 5519 5517 5516 5515 5514 5513 5512 5510 5509 5508 5507 5506 5505 5504 5503 5502 5501 5500 5499 5498 5497 5496 5495
5597 5596 5596 5595 5594 5594 5593 5592 5592 5591 5590 5589 5589 5588 5587 5586 5585 5584 5583 5581 5580 5579 5578 5576 5574 5574 5573 5572 5570 5569 5567 5565 5562 5560 5559 5557 5556 5554 5553 5551 5549 5546 5544 5543 5541 5539 5538 5535 5534 5532 5530 5529 5527 5526 5524 5523 5521 5520 5519 5518 5516 5515 5514 5513 5512 5511 5510 5509 5508 5506 5505 5504 5503 5502 5501 5500 5499 5498 5498 5496 5495 5494 5494 5493 5492 5491
5594 5594 5593 5593 5592 5591 5590 5590 5589 5588 5587 5586 5585 5584 5584 5582 5581 5580 5579 5577 5576 5575 5574 5572 5570 5569 5569 5568 5566 5564 5563 5561 5558 5555 5553 5552 5551 5549 5548 5546 5544 5541 5539 5537 5535 5534 5532 5529 5527 5526 5524 5523 5521 5520 5519 5517 5516 5514 5513 5512 5511 5510 5509 5508 5507 5506 5505 5504 5503 5501 5500 5499 5498 5497 5496 5495 5494 5494 5493 5492 5491 5490 5489 5488 5487 5486
5592 5592 5591 5590 5589 5589 5588 5587 5586 5585 5584 5583 5582 5581 5580 5579 5577 5576 5575 5574 5572 5571 5569 5568 5566 5565 5564 5563 5561 5559 5558 5556 5554 5551 5548 5546 5544 5543 5542 5541 5538 5535 5533 5531 5529 5528 5526 5524 5522 5520 5519 5518 5516 5515 5513 5512 5510 5509 5508 5507 5506 5505 5504 5503 5502 5501 5499 5498 5497 5496 5495 5494 5493 5492 5491 5490 5489 5489 5488 5487 5486 5485 5484 5484 5483 5482
5590 5589 5589 5588 5587 5586 5585 5584 5583 5582 5581 5579 5579 5577 5576 5575 5574 5572 5571 5570 5568 5567 5565 5564 5562 5561 5559 5558 5557 5555 5553 5551 5549 5546 5543 5540 5539 5537 5537 5535 5533 5530 5528 5526 5524 5522 5520 5518 5517 5515 5514 5513 5511 5510 5508 5507 5505 5504 5503 5502 5501 5500 5499 5498 5496 5495 5494 5493 5492 5491 5489 5489 5488 5487 5486 5485 5484 5483 5483 5482 5481 5480 5480 5479 5478 5477
5587 5587 5586 5585 5584 5583 5582 5581 5580 5579 5578 5576 5575 5574 5572 5571 5569 5568 5567 5565 5564 5562 5560 5559 5557 5556 5555 5554 5552 5550 5548 5546 5544 5541 5538 5535 5533 5532 5531 5530 5528 5525 5523 5521 5519 5518 5515 5513 5511 5510 5509 5508 5506 5504 5503 5502 5500 5499 5498 5497 5496 5494 5494 5492 5491 5490 5489 5488 5486 5485 5484 5483 5482 5481 5480 5479 5479 5478 5477 5477 5476 5475 5475 5474 5474 5473
5585 5584 5583 5582 5581 5580 5579 5578 5577 5575 5574 5573 5572 5570 5569 5567 5565 5564 5562 5561 5559 5557 5556 5554 5553 5551 5550 5549 5547 5545 5544 5542 5539 5537 5534 5531 5529 5527 5526 5525 5524 5521 5518 5515 5514 5513 5511 5508 5506 5505 5504 5503 5501 5499 5498 5497 5495 5494 5493 5492 5491 5489 5489 5487 5486 5485 5484 5483 5481 5480 5479 5478 5477 5476 5475 5474 5473 5472 5472 5471 5471 5470 5469 5469 5469 5468
5582 5581 5580 5579 5578 5577 5575 5574 5573 5572 5570 5569 5567 5566 5564 5562 5561 5559 5558 5556 5555 5553 5551 5549 5547 5546 5544 5544 5542 5540 5539 5537 5535 5533 5530 5527 5524 5522 5521 5521 5519 5517 5514 5511 5509 5508 5506 5504 5501 5500 5499 5498 5496 5495 5494 5492 5491 5489 5488 5487 5486 5485 5484 5483 5481 5480 5479 5477 5476 5475 5474 5473 5471 5470 5469 5469 5468 5467 5466 5466 5465 5465 5464 5464 5463 5463
5579 5578 5576 5575 5574 5573 5571 5570 5569 5567 5566 5564 5563 5561 5559 5558 5556 5555 5554 5552 5550 5548 5546 5544 5542 5541 5539 5538 5537 5535 5534 5533 5531 5528 5526 5524 5521 5518 5517 5516 5515 5513 5510 5507 5505 5503 5502 5500 5497 5495 5494 5493 5492 5490 5489 5488 5486 5485 5484 5482 5481 5480 5479 5478 5477 5475 5474 5473 5471 5470 5469 5468 5466 5465 5464 5464 5463 5462 5461 5460 5460 5459 5459 5459 5458 5458
5575 5574 5573 5572 5570 5569 5568 5566 5565 5563 5562 5560 5559 5557 5555 5554 5552 5550 5549 5547 5546 5544 5541 5539 5538 5536 5534 5533 5531 5530 5529 5528 5526 5524 5522 5519 5517 5514 5513 5512 5511 5509 5507 5504 5501 5499 5498 5496 5494 5492 5490 5489 5487 5486 5484 5483 5482 5480 5479 5478 5477 5475 5474 5473 5472 5470 5469 5468 5467 5465 5464 5463 5462 5460 5459 5459 5458 5457 5456 5455 5455 5454 5454 5454 5453 5453
5572 5571 5570 5569 5567 5565 5564 5562 5561 5559 5558 5556 5554 5552 5551 5549 5548 5546 5544 5543 5541 5539 5536 5534 5533 5531 5529 5527 5526 5525 5524 5524 5522 5519 5517 5515 5513 5510 5509 5508 5507 5505 5504 5502 5498 5495 5493 5492 5490 5489 5486 5484 5483 5482 5480 5479 5478 5476 5475 5473 5472 5471 5469 5468 5467 5466 5464 5463 5462 5461 5459 5458 5457 5456 5455 5454 5453 5452 5452 5451 5450 5450 5449 5449 5449 5448
5569 5568 5566 5565 5564 5562 5560 5559 5557 5555 5554 5552 5550 5548 5546 5544 5543 5541 5539 5537 5536 5534 5532 5529 5528 5526 5524 5522 5521 5519 5519 5518 5517 5515 5513 5511 5508 5506 5505 5504 5503 5501 5501 5499 5496 5492 5489 5487 5486 5485 5483 5481 5479 5477 5476 5475 5473 5472 5470 5469 5467 5466 5465 5464 5462 5461 5460 5459 5457 5456 5455 5454 5453 5451 5450 5449 5449 5448 5447 5446 5446 5445 5445 5444 5444 5444
5565 5564 5562 5561 5559 5558 5556 5555 5553 5551 5549 5548 5545 5544 5542 5540 5538 5536 5534 5532 5531 5529 5527 5524 5523 5521 5519 5517 5515 5514 5513 5512 5512 5510 5509 5507 5504 5502 5501 5500 5499 5497 5496 5496 5494 5491 5487 5483 5481 5481 5480 5478 5475 5474 5472 5471 5469 5468 5466 5465 5463 5461 5460 5459 5458 5456 5455 5454 5453 5451 5450 5449 5448 5447 5446 5445 5444 5444 5443 5442 5441 5441 5440 5440 5440 5440
5562 5560 5559 5557 5555 5554 5552 5550 5549 5547 5545 5543 5541 5539 5537 5535 5533 5531 5529 5528 5526 5524 5522 5520 5518 5516 5514 5512 5510 5509 5507 5507 5506 5505 5504 5503 5500 5498 5497 5496 5495 5493 5492 5492 5491 5489 5487 5483 5479 5477 5476 5474 5472 5470 5469 5467 5466 5464 5463 5461 5459 5457 5456 5455 5454 5452 5451 5449 5448 5447 5446 5445 5444 5443 5442 5441 5440 5439 5439 5438 5437 5437 5436 5436 5436 5436
5558 5556 5554 5553 5551 5549 5548 5546 5544 5542 5540 5539 5536 5534 5532 5530 5529 5527 5525 5523 5521 5519 5517 5515 5513 5511 5509 5507 5505 5504 5503 5502 5501 5500 5499 5498 5496 5494 5493 5492 5491 5489 5488 5488 5487 5487 5485 5482 5479 5476 5474 5471 5469 5467 5465 5464 5462 5461 5459 5458 5456 5454 5452 5451 5450 5448 5447 5446 5444 5443 5442 5441 5440 5439 5438 5437 5436 5436 5435 5434 5433 5433 5432 5432 5432 5432
5554 5553 5551 5549 5547 5545 5543 5541 5540 5538 5536 5534 5532 5530 5528 5526 5524 5522 5520 5518 5516 5514 5512 5510 5508 5506 5504 5502 5500 5499 5498 5497 5496 5496 5495 5494 5492 5490 5489 5488 5487 5486 5485 5484 5483 5482 5481 5480 5478 5476 5473 5469 5467 5464 5462 5460 5459 5457 5456 5454 5453 5451 5449 5448 5446 5445 5444 5442 5440 5439 5438 5437 5436 5435 5434 5434 5433 5432 5431 5430 5429 5429 5429 5428 5428 5428
5550 5549 5547 5545 5543 5541 5539 5537 5535 5533 5531 5529 5528 5525 5523 5521 5519 5517 5515 5513 5511 5509 5507 5505 5503 5501 5499 5498 5496 5494 5493 5492 5492 5491 5490 5489 5488 5487 5485 5484 5483 5482 5481 5480 5479 5478 5477 5476 5475 5473 5471 5468 5465 5462 5460 5458 5456 5454 5452 5451 5449 5448 5446 5444 5443 5442 5440 5439 5437 5436 5434 5434 5433 5432 5431 5430 5429 5428 5428 5427 5426 5425 5425 5425 5424 5424
5547 5545 5543 5541 5539 5537 5535 5533 5531 5529 5527 5525 5523 5521 5519 5517 5514 5513 5510 5508 5506 5504 5502 5500 5498 5496 5495 5493 5491 5490 5488 5487 5487 5486 5486 5485 5484 5483 5482 5480 5479 5479 5478 5476 5475 5474 5474 5472 5471 5469 5468 5466 5463 5460 5458 5455 5453 5451 5449 5447 5446 5444 5443 5441 5440 5439 5437 5436 5434 5433 5432 5430 5429 5429 5428 5427 5426 5425 5424 5423 5423 5422 5421 5421 5421 5420
5543 5541 5539 5537 5535 5533 5530 5528 5526 5524 5522 5520 5518 5516 5514 5512 5510 5508 5506 5504 5502 5499 5497 5495 5494 5492 5490 5488 5487 5485 5484 5483 5482 5482 5481 5481 5480 5479 5478 5477 5475 5474 5474 5473 5471 5470 5469 5468 5467 5465 5464 5463 5461 5459 5456 5453 5451 5449 5446 5444 5443 5441 5439 5438 5436 5435 5434 5432 5431 5430 5429 5427 5426 5426 5425 5424 5423 5422 5421 5420 5419 5419 5418 5418 5417 5417
5539 5537 5535 5533 5530 5528 5526 5524 5522 5520 5518 5515 5513 5511 5509 5507 5505 5503 5501 5499 5497 5495 5493 5491 5489 5487 5485 5484 5482 5481 5479 5479 5478 5477 5477 5476 5476 5475 5474 5473 5471 5470 5469 5469 5468 5467 5465 5464 5463 5462 5460 5459 5458 5456 5454 5451 5449 5446 5444 5442 5440 5438 5436 5434 5433 5431 5430 5429 5428 5426 5425 5424 5424 5423 5422 5421 5420 5419 5418 5417 5416 5416 5415 5414 5414 5414
5535 5533 5531 5529 5526 5524 5522 5519 5517 5515 5513 5511 5509 5507 5504 5502 5500 5498 5496 5494 5492 5490 5488 5486 5484 5482 5480 5479 5478 5476 5475 5474 5474 5473 5472 5472 5471 5471 5470 5469 5468 5466 5465 5464 5464 5463 5461 5460 5459 5458 5457 5455 5454 5452 5451 5449 5446 5444 5442 5439 5437 5435 5433 5431 5429 5428 5426 5425 5424 5423 5422 5421 5420 5419 5419 5418 5417 5416 5415 5414 5413 5413 5412 5411 5411 5410
5531 5529 5527 5524 5522 5519 5517 5515 5513 5510 5508 5506 5504 5502 5499 5497 5495 5493 5490 5489 5487 5485 5483 5481 5479 5478 5476 5474 5473 5472 5471 5470 5469 5469 5468 5467 5467 5466 5466 5465 5464 5462 5461 5460 5459 5458 5457 5456 5455 5454 5453 5451 5450 5449 5447 5445 5442 5440 5439 5437 5435 5433 5430 5428 5426 5424 5423 5422 5420 5419 5419 5418 5417 5416 5415 5414 5414 5413 5412 5411 5410 5409 5409 5408 5408 5407
5527 5525 5523 5520 5518 5515 5513 5510 5508 5506 5504 5501 5499 5497 5494 5492 5490 5488 5485 5484 5482 5480 5479 5477 5475 5473 5471 5470 5469 5468 5467 5466 5465 5464 5464 5463 5462 5462 5461 5460 5459 5458 5457 5456 5455 5454 5453 5452 5450 5449 5448 5447 5446 5445 5443 5441 5439 5436 5435 5433 5432 5430 5428 5425 5422 5420 5419 5418 5417 5416 5415 5414 5414 5413 5412 5411 5410 5409 5409 5408 5407 5407 5406 5405 5404 5404
5523 5521 5519 5516 5514 5511 5509 5506 5504 5501 5499 5497 5494 5492 5489 5487 5485 5483 5480 5479 5477 5475 5474 5473 5471 5469 5467 5465 5464 5464 5463 5462 5461 5460 5459 5459 5458 5457 5456 5455 5454 5454 5453 5452 5450 5449 5449 5447 5446 5445 5444 5443 5441 5440 5439 5437 5434 5432 5430 5429 5427 5426 5424 5422 5419 5417 5415 5414 5413 5412 5411 5411 5410 5410 5409 5408 5407 5406 5406 5405 5404 5404 5403 5402 5401 5401
5519 5517 5514 5512 5509 5507 5504 5502 5499 5496 5494 5491 5489 5487 5484 5482 5480 5478 5476 5474 5472 5471 5469 5468 5467 5465 5464 5462 5460 5459 5459 5458 5457 5456 5455 5454 5454 5453 5452 5451 5450 5449 5448 5447 5446 5445 5444 5443 5442 5440 5439 5438 5437 5435 5434 5432 5430 5428 5426 5424 5423 5422 5420 5418 5416 5414 5412 5410 5409 5409 5408 5407 5407 5406 5406 5405 5404 5404 5403 5402 5401 5400 5399 5399 5398 5398
5514 5512 5509 5507 5504 5502 5499 5497 5494 5491 5489 5486 5484 5481 5479 5477 5475 5473 5471 5469 5468 5466 5465 5464 5463 5462 5460 5459 5457 5455 5454 5453 5452 5452 5451 5450 5449 5448 5447 5446 5445 5444 5444 5443 5442 5441 5439 5438 5437 5436 5434 5433 5432 5430 5429 5427 5426 5424 5422 5420 5419 5417 5415 5414 5412 5410 5408 5407 5406 5405 5404 5404 5403 5403 5403 5402 5401 5400 5399 5399 5398 5397 5396 5395 5395 5394
5510 5508 5505 5502 5500 5497 5494 5492 5489 5486 5483 5481 5479 5476 5474 5472 5470 5468 5467 5465 5464 5462 5461 5460 5459 5458 5456 5455 5454 5452 5451 5449 5448 5447 5446 5445 5444 5444 5443 5442 5440 5439 5439 5438 5437 5436 5435 5434 5432 5431 5429 5428 5427 5426 5424 5422 5421 5419 5418 5416 5414 5412 5411 5409 5408 5406 5405 5404 5402 5401 5400 5400 5399 5399 5399 5399 5398 5398 5397 5396 5395 5394 5393 5392 5391 5391
5505 5503 5500 5498 5495 5492 5489 5486 5484 5481 5478 5475 5473 5471 5469 5467 5465 5464 5462 5461 5459 5458 5457 5456 5455 5454 5452 5451 5450 5449 5447 5446 5444 5443 5442 5441 5440 5439 5438 5437 5436 5435 5434 5433 5432 5431 5430 5429 5428 5426 5425 5424 5422 5421 5419 5418 5416 5414 5413 5412 5410 5408 5406 5405 5403 5402 5400 5399 5399 5398 5397 5396 5396 5396 5396 5396 5395 5394 5394 5393 5392 5390 5389 5389 5388 5387
5501 5498 5495 5492 5489 5487 5484 5481 5478 5475 5473 5470 5468 5466 5464 5462 5461 5459 5458 5457 5455 5454 5453 5452 5451 5450 5449 5447 5446 5445 5444 5442 5440 5439 5438 5436 5435 5434 5433 5432 5431 5430 5429 5428 5427 5426 5425 5424 5423 5421 5420 5419 5417 5416 5414 5413 5411 5409 5408 5407 5405 5404 5402 5400 5399 5397 5396 5395 5394 5394 5393 5393 5392 5392 5392 5392 5392 5392 5391 5390 5389 5387 5386 5385 5384 5384
5496 5493 5490 5487 5484 5481 5478 5475 5473 5470 5468 5465 5463 5461 5459 5458 5456 5455 5454 5452 5451 5450 5449 5448 5447 5446 5445 5444 5442 5441 5440 5439 5437 5435 5434 5433 5431 5430 5429 5428 5427 5426 5425 5424 5423 5422 5420 5419 5418 5416 5415 5414 5412 5410 5409 5408 5407 5405 5403 5402 5400 5399 5397 5396 5394 5393 5392 5391 5390 5390 5389 5389 5389 5388 5388 5389 5389 5389 5388 5387 5386 5384 5383 5382 5381 5381
5491 5488 5484 5482 5479 5475 5473 5470 5467 5465 5463 5460 5458 5456 5454 5453 5452 5451 5449 5448 5447 5446 5445 5444 5443 5442 5441 5439 5439 5438 5436 5435 5434 5432 5430 5429 5428 5426 5425 5424 5423 5421 5420 5419 5418 5417 5416 5415 5414 5412 5410 5408 5406 5405 5404 5403 5402 5400 5398 5396 5395 5394 5392 5391 5390 5389 5388 5387 5386 5386 5385 5384 5384 5384 5384 5384 5385 5385 5385 5384 5383 5382 5380 5379 5378 5378
5486 5483 5479 5476 5473 5470 5468 5465 5462 5460 5458 5456 5454 5452 5450 5449 5447 5446 5445 5444 5443 5443 5442 5440 5439 5438 5437 5435 5434 5434 5432 5431 5429 5428 5427 5425 5424 5422 5421 5420 5419 5417 5416 5415 5414 5413 5412 5411 5409 5407 5405 5403 5401 5400 5399 5398 5396 5395 5393 5391 5390 5389 5387 5386 5385 5384 5383 5383 5382 5382 5381 5380 5380 5380 5380 5381 5381 5381 5382 5381 5381 5379 5378 5376 5375 5375
5481 5477 5474 5471 5468 5465 5463 5460 5458 5455 5453 5451 5449 5448 5446 5444 5443 5442 5441 5440 5439 5439 5438 5437 5435 5434 5433 5432 5430 5429 5428 5427 5425 5424 5423 5421 5420 5418 5417 5416 5414 5413 5412 5411 5410 5409 5408 5406 5405 5403 5401 5398 5396 5394 5393 5392 5391 5389 5388 5386 5385 5384 5382 5381 5380 5380 5379 5379 5378 5378 5377 5377 5376 5376 5377 5377 5377 5378 5378 5378 5378 5377 5375 5374 5373 5372